Fort Lewis, WA

11:48 PM PDT on June 26, 2017 (GMT -0700)
Gray Army Air Field

Weather History for KGRF - July, 2013

Change the Weather History Date:

Tuesday, July 2, 2013

  Actual Average Record
Temperature  
Mean Temperature 68 °F -  
Max Temperature 80 °F 71 °F 93 °F (2015)
Min Temperature 58 °F 50 °F 42 °F (2003)
Cooling Degree Days 4    
Growing Degree Days 18 (Base 50)    
Moisture  
Dew Point 57 °F    
Average Humidity 75    
Maximum Humidity 94    
Minimum Humidity 46    
Precipitation  
Precipitation 0.00 in - - ()
Sea Level Pressure  
Sea Level Pressure 30.10 in    
Wind  
Wind Speed 5 mph (West)    
Max Wind Speed 9 mph    
Max Gust Speed -    
Visibility 10 miles    
Events      
Averages and records for this station are not official NWS values.
T = Trace of Precipitation, MM = Missing Value Source: NWS Daily Summary

Daily Weather History Graph

Daily Weather History Graph

Search for Another Location

Airport or City:

Trip Planner

Search our weather history database for the weather conditions in past years. The results will help you decide how hot, cold, wet, or windy it might be!

Date:

Astronomy

Jul. 02, 2013 Rise Set
Actual Time 5:19 AM PDT 9:08 PM PDT
Civil Twilight 4:40 AM PDT 9:48 PM PDT
Nautical Twilight 3:46 AM PDT 10:42 PM PDT
Astronomical Twilight 2:27 AM PDT 12:00 AM PDT
Moon 1:37 AM PDT (7/2) 4:18 PM PDT (7/2)
Length of Visible Light 17h 08m
Length of Day
15h 49m
Waning Crescent, 25% of the Moon is Illuminated
Jul 2
Waning Crescent
Jul 8
New
Jul 15
First Quarter
Jul 22
Full
Jul 29
Last Quarter

Hourly Weather History & Observations

Time (PDT) Temp. Dew Point Humidity Pressure Visibility Wind Dir Wind Speed Gust Speed Precip Events Conditions
12:58 AM 63.0 °F 56.5 °F 79% 30.07 in 10.0 mi West 6.9 mph - N/A   Clear
1:58 AM 62.1 °F 56.5 °F 82% 30.09 in 10.0 mi NW 2.3 mph - N/A   Clear
2:58 AM 60.6 °F 56.5 °F 86% 30.09 in 10.0 mi WNW 5.8 mph - N/A   Clear
3:58 AM 59.2 °F 56.1 °F 90% 30.08 in 10.0 mi WNW 3.5 mph - N/A   Clear
4:58 AM 58.5 °F 56.1 °F 92% 30.09 in 10.0 mi West 5.8 mph - N/A   Scattered Clouds
5:03 AM 59.0 °F 55.4 °F 88% 30.07 in 10.0 mi West 5.8 mph - N/A   Mostly Cloudy
5:08 AM 59.0 °F 57.2 °F 94% 30.07 in 10.0 mi West 4.6 mph - N/A   Mostly Cloudy
5:58 AM 58.8 °F 56.3 °F 91% 30.10 in 10.0 mi West 5.8 mph - N/A   Overcast
6:03 AM 59.0 °F 55.4 °F 88% 30.09 in 10.0 mi West 6.9 mph - N/A   Overcast
6:58 AM 59.2 °F 56.7 °F 91% 30.11 in 10.0 mi Variable 2.3 mph - N/A   Overcast
7:08 AM 59.0 °F 57.2 °F 94% 30.10 in 10.0 mi SW 3.5 mph - N/A   Overcast
7:58 AM 60.3 °F 56.7 °F 88% 30.12 in 10.0 mi Variable 2.3 mph - N/A   Overcast
8:08 AM 60.8 °F 57.2 °F 88% 30.11 in 10.0 mi Variable 1.2 mph - N/A   Overcast
8:58 AM 61.3 °F 56.8 °F 85% 30.13 in 10.0 mi NW 4.6 mph - N/A   Overcast
9:38 AM 62.6 °F 57.2 °F 82% 30.11 in 10.0 mi Variable 2.3 mph - N/A   Overcast
9:58 AM 62.8 °F 57.0 °F 81% 30.11 in 10.0 mi West 3.5 mph - N/A   Overcast
10:58 AM 65.3 °F 57.6 °F 76% 30.11 in 10.0 mi West 4.6 mph - N/A   Mostly Cloudy
11:40 AM 66.2 °F 57.2 °F 73% 30.11 in 10.0 mi WSW 8.1 mph - N/A   Overcast
11:50 AM 66.2 °F 57.2 °F 73% 30.11 in 10.0 mi West 9.2 mph - N/A   Overcast
11:55 AM 66.2 °F 57.2 °F 73% 30.12 in 10.0 mi WSW 9.2 mph - N/A   Overcast
11:58 AM 66.4 °F 57.6 °F 73% 30.13 in 10.0 mi WSW 8.1 mph - N/A   Overcast
12:53 PM 66.2 °F 57.2 °F 73% 30.12 in 10.0 mi Variable 6.9 mph - N/A   Mostly Cloudy
12:58 PM 67.1 °F 57.9 °F 72% 30.13 in 10.0 mi Variable 5.8 mph - N/A   Scattered Clouds
1:58 PM 70.2 °F 58.3 °F 66% 30.13 in 10.0 mi SW 4.6 mph - N/A   Clear
2:58 PM 73.4 °F 58.8 °F 60% 30.12 in 10.0 mi WSW 5.8 mph - N/A   Clear
3:58 PM 77.2 °F 60.1 °F 55% 30.10 in 10.0 mi SW 8.1 mph - N/A   Clear
4:58 PM 79.7 °F 60.3 °F 51% 30.09 in 10.0 mi NW 6.9 mph - N/A   Clear
5:58 PM 79.9 °F 59.7 °F 50% 30.08 in 10.0 mi Variable 5.8 mph - N/A   Clear
6:58 PM 79.5 °F 57.2 °F 46% 30.07 in 10.0 mi WNW 6.9 mph - N/A   Clear
7:58 PM 77.9 °F 56.3 °F 47% 30.06 in 10.0 mi NNW 5.8 mph - N/A   Clear
8:58 PM 75.2 °F 57.0 °F 53% 30.05 in 10.0 mi NNW 2.3 mph - N/A   Clear
9:58 PM 71.8 °F 58.3 °F 62% 30.06 in 10.0 mi West 6.9 mph - N/A   Clear
10:58 PM 68.0 °F 56.8 °F 67% 30.07 in 10.0 mi West 8.1 mph - N/A   Clear
11:58 PM 65.1 °F 55.6 °F 71% 30.10 in 10.0 mi WNW 3.5 mph - N/A   Clear